Location: Radomski Observatory
(40.2854°N, 79.5145°W)
Time: 04:55:06
(UTC-05:00)

Cosmos 1072 Rocket - Visible Passes

Search period start: 09 February 2016 00:00
Search period end: 19 February 2016 00:00
Orbit: 949 x 1008 km, 82.9° (Epoch: 07 February)

Date Brightness Start Highest point End Pass type
(mag) Time Alt. Az. Time Alt. Az. Time Alt. Az.
15 Feb 7.3 06:25:33 10° NE 06:28:33 13° ENE 06:31:33 10° E visible
17 Feb 6.6 20:56:56 15° N 20:56:56 15° N 20:57:50 10° N visible
18 Feb 7.4 05:59:51 10° NE 06:02:11 12° ENE 06:04:29 10° E visible
18 Feb 6.3 19:37:01 14° NE 19:37:01 14° NE 19:37:57 10° NNE visible
18 Feb 6.3 21:21:38 23° NNW 21:21:38 23° NNW 21:24:02 10° N visible
